Home   Weather   Melk   Past weeks

Flag for Austria Past Weather in Melk, Lower Austria, Austria — Yesterday and Last 2 Weeks

Now
57 °F

Overcast.


Feels Like: 57 °F
Forecast: 56 / 71 °F
Wind: 2 mph from West

Location: Amstetten

Current Time: Jul 26, 2017 at 9:00:48 am

Latest Report: Jul 26, 2017 at 8:00 am


Visibility: N/A

Pressure: 29.69 "Hg

Humidity: 81%

Dew Point: 51 °F

Location of MelkLocation

Past Weather in Melk — Graph

°F

Melk Temperature Yesterday

Maximum temperature yesterday: 68 °F (at 5:00 pm)
Minimum temperature yesterday: 56 °F (at 6:00 am)
Average temperature yesterday: 60 °F

High & Low Weather Summary for the Past Weeks

 TemperatureHumidityPressure
High90 °F (Jul 20, 4:00 pm)99% (Jul 21, 6:00 am)30.29 "Hg (Jul 21, 6:00 am)
Low52 °F (Jul 14, 1:00 am)28% (Jul 13, 7:00 pm)29.68 "Hg (Jul 26, 6:00 am)
Average68 °F70%29.97 "Hg
* Reported Jul 11 7:00 am — Jul 26 7:00 am, Melk. Weather by CustomWeather, © 2017

Note: Actual official high and low records may vary slightly from our data, if they occured in-between our weather recording intervals... More about our weather records

Advertising

Melk Weather History for the Previous 24 Hours

Scroll right to see more
 ConditionsComfort  
Time TempWeatherWind HumidityBarometerVisibility
7:00 am
Wed, Jul 26
58 °FCool.2 mph77%29.68 "HgN/A
6:00 am58 °FCool.1 mph79%29.68 "HgN/A
5:00 am59 °FCool.5 mph75%29.69 "HgN/A
4:00 am57 °FCool.2 mph84%29.70 "HgN/A
3:00 am56 °FCool.3 mph85%29.72 "HgN/A
2:00 am57 °FCool.5 mph83%29.74 "HgN/A
1:00 am59 °FCool.2 mph72%29.75 "HgN/A
12:00 am59 °FCool.3 mph71%29.76 "HgN/A
11:00 pm
Tue, Jul 25
58 °FCool.3 mph78%29.76 "HgN/A
10:00 pm57 °FCool.5 mph81%29.75 "HgN/A
9:00 pm58 °FFog.6 mph84%29.76 "HgN/A
8:00 pm64 °FMild.5 mph60%29.72 "HgN/A
7:00 pm65 °FMild.2 mph57%29.72 "HgN/A
6:00 pm66 °FMild.3 mph60%29.71 "HgN/A
5:00 pm68 °FMild.3 mph56%29.71 "HgN/A
4:00 pm62 °FMild.5 mph74%29.74 "HgN/A
3:00 pm65 °FMild.3 mph61%29.73 "HgN/A
2:00 pm64 °FMild.5 mph63%29.74 "HgN/A
1:00 pm63 °FMild.2 mph77%29.75 "HgN/A
12:00 pm60 °FSprinkles. Cloudy.2 mph89%29.76 "HgN/A
11:00 am57 °FFog.3 mph88%29.77 "HgN/A
10:00 am59 °FCool.2 mph77%29.76 "HgN/A
9:00 am61 °FCool.5 mph71%29.75 "HgN/A
Weather by CustomWeather, © 2017

See weather overviewHow to use our weather pages